TimeEST,TemperatureF,Dew PointF,Humidity,Sea Level PressureIn,VisibilityMPH,Wind Direction,Wind SpeedMPH,Gust SpeedMPH,PrecipitationIn,Events,Conditions,WindDirDegrees,DateUTC
12:15 AM,5.7,-2.7,68,29.86,10.0,Calm,Calm,-,N/A,,Overcast,0,2013-01-04 05:15:00
12:35 AM,5.5,-2.4,70,29.85,10.0,Calm,Calm,-,N/A,,Overcast,0,2013-01-04 05:35:00
12:55 AM,5.4,-1.3,74,29.85,10.0,Calm,Calm,-,N/A,Snow,Light Snow,0,2013-01-04 05:55:00
1:15 AM,5.0,-1.7,74,29.84,3.0,Calm,Calm,-,N/A,Snow,Light Snow,0,2013-01-04 06:15:00
1:35 AM,5.0,-1.7,74,29.83,4.0,Calm,Calm,-,N/A,Snow,Light Snow,0,2013-01-04 06:35:00
1:55 AM,5.5,-1.8,72,29.83,3.0,Calm,Calm,-,N/A,Snow,Light Snow,0,2013-01-04 06:55:00
2:15 AM,4.5,-1.3,77,29.83,4.0,Calm,Calm,-,N/A,Snow,Light Snow,0,2013-01-04 07:15:00
2:35 AM,5.5,-1.3,73,29.83,4.0,Calm,Calm,-,N/A,Snow,Light Snow,0,2013-01-04 07:35:00
2:55 AM,5.9,-1.1,73,29.83,1.5,Calm,Calm,-,N/A,Snow,Light Snow,0,2013-01-04 07:55:00
3:15 AM,6.3,-0.4,74,29.83,1.5,Calm,Calm,-,N/A,Snow,Light Snow,0,2013-01-04 08:15:00
3:35 AM,6.6,0.3,75,29.83,4.0,Calm,Calm,-,N/A,Snow,Light Snow,0,2013-01-04 08:35:00
3:55 AM,7.3,0.9,75,29.83,5.0,Calm,Calm,-,N/A,Snow,Light Snow,0,2013-01-04 08:55:00
4:15 AM,7.5,1.6,77,29.82,10.0,Calm,Calm,-,N/A,,Overcast,0,2013-01-04 09:15:00
7:15 AM,8.4,3.4,80,29.80,4.0,Calm,Calm,-,N/A,Snow,Light Snow,0,2013-01-04 12:15:00
7:35 AM,9.1,4.1,80,29.79,3.0,Calm,Calm,-,N/A,Snow,Light Snow,0,2013-01-04 12:35:00
8:15 AM,9.5,4.6,81,29.79,3.0,Calm,Calm,-,N/A,Snow,Light Snow,0,2013-01-04 13:15:00
8:35 AM,9.5,4.8,81,29.79,5.0,Calm,Calm,-,N/A,Snow,Light Snow,0,2013-01-04 13:35:00
8:55 AM,10.2,5.2,80,29.78,7.0,Calm,Calm,-,N/A,Snow,Light Snow,0,2013-01-04 13:55:00
9:15 AM,10.9,5.9,80,29.78,5.0,Calm,Calm,-,N/A,Snow,Light Snow,0,2013-01-04 14:15:00
9:35 AM,11.7,6.8,81,29.77,3.0,Calm,Calm,-,N/A,Snow,Light Snow,0,2013-01-04 14:35:00
9:55 AM,12.7,7.7,80,29.76,5.0,Calm,Calm,-,N/A,Snow,Light Snow,0,2013-01-04 14:55:00
10:15 AM,14.2,9.3,81,29.74,4.0,ESE,3.5,-,N/A,Snow,Light Snow,110,2013-01-04 15:15:00
10:35 AM,15.8,10.0,78,29.73,1.5,Calm,Calm,-,N/A,Snow,Light Snow,0,2013-01-04 15:35:00
10:55 AM,16.9,11.3,79,29.72,5.0,Calm,Calm,-,N/A,Snow,Light Snow,0,2013-01-04 15:55:00
11:15 AM,19.0,13.3,78,29.71,10.0,Calm,Calm,-,N/A,,Overcast,0,2013-01-04 16:15:00
11:35 AM,20.1,14.9,80,29.71,10.0,South,4.6,-,N/A,,Overcast,170,2013-01-04 16:35:00
11:55 AM,21.7,16.3,80,29.69,10.0,South,5.8,-,N/A,,Overcast,170,2013-01-04 16:55:00
12:15 PM,23.2,17.6,79,29.69,7.0,South,4.6,-,N/A,Snow,Light Snow,170,2013-01-04 17:15:00
12:35 PM,24.3,18.3,78,29.68,5.0,ESE,5.8,-,N/A,Snow,Light Snow,120,2013-01-04 17:35:00
12:55 PM,24.3,18.5,79,29.68,4.0,SSE,3.5,-,N/A,Snow,Light Snow,150,2013-01-04 17:55:00
1:15 PM,27.9,20.5,74,29.68,2.0,SSW,6.9,-,N/A,Snow,Light Snow,210,2013-01-04 18:15:00
1:35 PM,28.4,21.9,77,29.68,2.0,SW,5.8,-,N/A,Snow,Light Snow,220,2013-01-04 18:35:00
1:55 PM,28.4,22.8,80,29.68,1.2,SW,5.8,-,N/A,Snow,Light Snow,230,2013-01-04 18:55:00
2:15 PM,28.4,23.9,83,29.68,1.0,SW,4.6,-,N/A,Snow,Light Snow,220,2013-01-04 19:15:00
2:35 PM,29.1,24.3,82,29.68,1.5,WSW,5.8,-,N/A,Snow,Light Snow,240,2013-01-04 19:35:00
2:55 PM,29.1,23.9,81,29.68,1.5,WSW,5.8,-,N/A,Snow,Light Snow,240,2013-01-04 19:55:00
3:15 PM,29.1,24.3,82,29.69,1.5,WSW,6.9,-,N/A,Snow,Light Snow,240,2013-01-04 20:15:00
3:35 PM,28.9,24.4,83,29.69,1.8,WSW,5.8,-,N/A,Snow,Light Snow,240,2013-01-04 20:35:00
3:55 PM,29.1,24.1,81,29.69,2.5,WSW,9.2,-,N/A,Snow,Light Snow,240,2013-01-04 20:55:00
4:15 PM,28.9,24.4,83,29.69,2.5,SW,5.8,-,N/A,Snow,Light Snow,230,2013-01-04 21:15:00
4:35 PM,28.9,24.4,83,29.69,4.0,WSW,4.6,-,N/A,Snow,Light Snow,250,2013-01-04 21:35:00
4:55 PM,28.9,24.4,83,29.69,3.0,WSW,5.8,-,N/A,Snow,Light Snow,250,2013-01-04 21:55:00
5:15 PM,28.8,24.8,85,29.69,2.5,West,8.1,-,N/A,Snow,Light Snow,260,2013-01-04 22:15:00
5:35 PM,28.4,24.8,86,29.69,2.0,West,6.9,-,N/A,Snow,Light Snow,260,2013-01-04 22:35:00
5:55 PM,28.8,25.2,86,29.69,2.0,WSW,5.8,-,N/A,Snow,Light Snow,250,2013-01-04 22:55:00
6:35 PM,28.4,25.3,88,29.70,7.0,Calm,Calm,-,N/A,Snow,Light Snow,0,2013-01-04 23:35:00
6:55 PM,28.6,25.0,86,29.71,7.0,West,4.6,-,N/A,,Overcast,260,2013-01-04 23:55:00
7:15 PM,28.8,24.8,85,29.71,7.0,WSW,3.5,-,N/A,Snow,Light Snow,240,2013-01-05 00:15:00
7:35 PM,28.9,25.2,86,29.70,5.0,WSW,4.6,-,N/A,Snow,Light Snow,240,2013-01-05 00:35:00
7:55 PM,29.3,24.6,83,29.71,5.0,West,8.1,-,N/A,Snow,Light Snow,260,2013-01-05 00:55:00
8:15 PM,29.3,24.6,83,29.71,4.0,WSW,9.2,-,N/A,Snow,Light Snow,240,2013-01-05 01:15:00
8:35 PM,28.9,24.6,84,29.71,3.0,West,3.5,-,N/A,Snow,Light Snow,260,2013-01-05 01:35:00
8:55 PM,28.8,24.6,84,29.71,7.0,Calm,Calm,-,N/A,,Overcast,0,2013-01-05 01:55:00
9:15 PM,29.3,23.9,80,29.70,10.0,Calm,Calm,-,N/A,,Overcast,0,2013-01-05 02:15:00
9:35 PM,28.9,24.6,84,29.70,1.2,Calm,Calm,-,N/A,Snow,Light Snow,0,2013-01-05 02:35:00
9:55 PM,28.4,25.0,87,29.70,1.8,Calm,Calm,-,N/A,Snow,Light Snow,0,2013-01-05 02:55:00
10:15 PM,28.4,24.6,86,29.70,7.0,Calm,Calm,-,N/A,Snow,Light Snow,0,2013-01-05 03:15:00
10:35 PM,29.3,23.5,79,29.71,10.0,SW,4.6,-,N/A,Snow,Light Snow,230,2013-01-05 03:35:00
10:55 PM,28.9,23.2,79,29.71,10.0,WSW,5.8,-,N/A,Snow,Light Snow,240,2013-01-05 03:55:00
11:15 PM,29.3,22.1,75,29.71,10.0,WSW,5.8,-,N/A,Snow,Light Snow,240,2013-01-05 04:15:00
11:35 PM,29.1,22.1,75,29.70,10.0,WSW,6.9,-,N/A,,Overcast,240,2013-01-05 04:35:00
11:55 PM,28.8,22.8,78,29.70,4.0,SW,3.5,-,N/A,Snow,Light Snow,230,2013-01-05 04:55:00